| time (UTC) | temp C | wind direction | speed KPH | gust KPH | rain 1hr cm | rain 24hr cm | rain mn cm | humidity % | barometer mb |
| 20260502224040 | 18 | 70 | 9.7 | 12.9 | 0.00 | 15.01 | 20.98 | 89 | 1017.7 |
| 20260502223540 | 18 | 84 | 8.0 | 14.5 | 0.00 | 15.01 | 20.98 | 89 | 1017.9 |
| 20260502223040 | 18 | 78 | 9.7 | 12.9 | 0.00 | 15.01 | 20.98 | 88 | 1017.9 |
| 20260502222540 | 18 | 77 | 3.2 | 4.8 | 0.00 | 15.01 | 20.98 | 88 | 1017.8 |
| 20260502222041 | 18 | 77 | 4.8 | 6.4 | 0.00 | 15.01 | 20.98 | 88 | 1017.8 |
| 20260502221040 | 17 | 69 | 1.6 | 3.2 | 0.00 | 15.01 | 20.98 | 89 | 1017.8 |
| 20260502220540 | 18 | 59 | 4.8 | 8.0 | 0.00 | 15.01 | 20.98 | 90 | 1017.8 |
| 20260502220040 | 18 | 53 | 4.8 | 6.4 | 0.00 | 15.01 | 20.98 | 90 | 1017.9 |
| 20260502215540 | 18 | 21 | 1.6 | 3.2 | 0.00 | 15.01 | 20.98 | 90 | 1018.0 |
| 20260502215040 | 18 | 72 | 1.6 | 3.2 | 0.00 | 15.01 | 20.98 | 90 | 1018.0 |
| 20260502214540 | 18 | 71 | 6.4 | 12.9 | 0.00 | 15.01 | 20.98 | 89 | 1018.2 |
| 20260502214040 | 18 | 65 | 4.8 | 9.7 | 0.00 | 15.01 | 20.98 | 89 | 1018.2 |
| 20260502213540 | 18 | 64 | 1.6 | 3.2 | 0.00 | 15.01 | 20.98 | 89 | 1018.3 |
| 20260502213040 | 18 | 92 | 1.6 | 3.2 | 0.00 | 15.01 | 20.98 | 89 | 1018.4 |
| 20260502212540 | 17 | 85 | 3.2 | 6.4 | 0.00 | 15.01 | 20.98 | 89 | 1018.3 |
| 20260502212040 | 17 | 69 | 3.2 | 4.8 | 0.00 | 15.01 | 20.98 | 89 | 1018.3 |
| 20260502211540 | 17 | 53 | 3.2 | 4.8 | 0.00 | 15.01 | 20.98 | 89 | 1018.3 |
| 20260502211040 | 17 | 53 | 3.2 | 4.8 | 0.00 | 15.01 | 20.98 | 89 | 1018.4 |
| 20260502210540 | 17 | 53 | 3.2 | 4.8 | 0.00 | 15.01 | 20.98 | 89 | 1018.3 |
| 20260502210040 | 17 | 79 | 6.4 | 8.0 | 0.00 | 15.01 | 20.98 | 89 | 1018.3 |
| 20260502205540 | 17 | 69 | 4.8 | 6.4 | 0.00 | 15.01 | 20.98 | 89 | 1018.4 |
| 20260502205040 | 17 | 77 | 1.6 | 3.2 | 0.00 | 15.01 | 20.98 | 89 | 1018.1 |
| 20260502204540 | 17 | 87 | 3.2 | 4.8 | 0.00 | 15.01 | 20.98 | 89 | 1018.3 |
| 20260502204039 | 17 | 87 | 3.2 | 4.8 | 0.00 | 15.01 | 20.98 | 89 | 1017.9 |
| 20260502203542 | 17 | 87 | 3.2 | 4.8 | 0.00 | 15.01 | 20.98 | 89 | 1017.9 |
| 20260502202539 | 17 | 80 | 4.8 | 12.9 | 0.00 | 15.01 | 20.98 | 89 | 1017.9 |
| 20260502202039 | 17 | 90 | 6.4 | 8.0 | 0.00 | 15.01 | 20.98 | 89 | 1017.8 |
| 20260502201539 | 17 | 67 | 3.2 | 4.8 | 0.00 | 15.01 | 20.98 | 89 | 1017.8 |
| 20260502201039 | 17 | 85 | 8.0 | 12.9 | 0.00 | 15.01 | 20.98 | 89 | 1017.9 |
| 20260502200539 | 17 | 89 | 4.8 | 8.0 | 0.00 | 15.01 | 20.98 | 89 | 1018.0 |
| 20260502200039 | 18 | 71 | 1.6 | 4.8 | 0.00 | 15.01 | 20.98 | 89 | 1017.7 |
| 20260502195539 | 18 | 66 | 0.0 | 1.6 | 0.00 | 15.01 | 20.98 | 89 | 1017.6 |
| 20260502195039 | 18 | 89 | 3.2 | 4.8 | 0.00 | 15.01 | 20.98 | 89 | 1017.8 |
| 20260502194539 | 18 | 92 | 0.0 | 1.6 | 0.00 | 15.01 | 20.98 | 89 | 1017.7 |
| 20260502194039 | 18 | 71 | 3.2 | 6.4 | 0.00 | 15.01 | 20.98 | 89 | 1017.7 |
| 20260502193539 | 18 | 71 | 3.2 | 6.4 | 0.00 | 15.01 | 20.98 | 89 | 1017.8 |
| 20260502193039 | 18 | 10 | 8.0 | 9.7 | 0.00 | 15.01 | 20.98 | 89 | 1017.7 |
| 20260502192539 | 18 | 66 | 1.6 | 3.2 | 0.00 | 15.01 | 20.98 | 89 | 1017.9 |
| 20260502192039 | 18 | 52 | 4.8 | 8.0 | 0.00 | 15.01 | 20.98 | 89 | 1017.7 |
| 20260502191539 | 18 | 53 | 3.2 | 4.8 | 0.00 | 15.01 | 20.98 | 89 | 1017.8 |
| 20260502191038 | 18 | 65 | 4.8 | 6.4 | 0.00 | 15.01 | 20.98 | 90 | 1017.9 |
| 20260502190538 | 18 | 78 | 1.6 | 4.8 | 0.00 | 15.01 | 20.98 | 90 | 1017.8 |
| 20260502190038 | 18 | 51 | 8.0 | 9.7 | 0.00 | 15.01 | 20.98 | 90 | 1018.0 |
| 20260502185538 | 18 | 51 | 8.0 | 9.7 | 0.00 | 15.01 | 20.98 | 90 | 1017.7 |
| 20260502185038 | 18 | 78 | 11.3 | 16.1 | 0.00 | 15.01 | 20.98 | 90 | 1017.7 |
| 20260502184538 | 18 | 77 | 6.4 | 6.4 | 0.00 | 15.01 | 20.98 | 90 | 1017.8 |
| 20260502184038 | 18 | 68 | 1.6 | 3.2 | 0.00 | 15.01 | 20.98 | 90 | 1017.6 |
| 20260502183539 | 18 | 60 | 4.8 | 6.4 | 0.00 | 15.01 | 20.98 | 90 | 1017.6 |
| 20260502182538 | 18 | 75 | 9.7 | 14.5 | 0.00 | 15.01 | 20.98 | 90 | 1017.7 |
| 20260502182038 | 18 | 11 | 6.4 | 8.0 | 0.00 | 15.01 | 20.98 | 90 | 1017.5 |
| 20260502181538 | 18 | 79 | 9.7 | 12.9 | 0.00 | 15.01 | 20.98 | 89 | 1017.6 |
| 20260502181038 | 18 | 46 | 0.0 | 1.6 | 0.00 | 15.01 | 20.98 | 89 | 1017.4 |
| 20260502180538 | 18 | 82 | 9.7 | 14.5 | 0.00 | 15.01 | 20.98 | 89 | 1017.8 |
| 20260502164229 | 19 | 81 | 3.2 | 6.4 | 0.00 | 15.01 | 20.98 | 86 | 1018.5 |
| 20260502163531 | 19 | 109 | 1.6 | 4.8 | 0.00 | 15.01 | 20.98 | 86 | 1018.3 |
| 20260502163032 | 19 | 105 | 1.6 | 4.8 | 0.00 | 15.01 | 20.98 | 87 | 1018.5 |
| 20260502162706 | 19 | 78 | 3.2 | 3.2 | 0.00 | 15.01 | 20.98 | 88 | 1018.5 |
| 20260502162206 | 18 | 86 | 6.4 | 8.0 | 0.00 | 15.01 | 20.98 | 88 | 1018.4 |
| 20260502161706 | 19 | 82 | 17.7 | 20.9 | 0.00 | 15.01 | 20.98 | 87 | 1018.3 |
| 20260502161206 | 19 | 114 | 1.6 | 6.4 | 0.00 | 15.01 | 20.98 | 86 | 1018.7 |
| 20260502160706 | 20 | 61 | 6.4 | 9.7 | 0.00 | 15.01 | 20.98 | 86 | 1018.8 |
| 20260502160206 | 19 | 100 | 4.8 | 8.0 | 0.00 | 15.01 | 20.98 | 86 | 1018.9 |
| 20260502152152 | 19 | 68 | 3.2 | 6.4 | 0.00 | 15.01 | 20.98 | 88 | 1019.1 |
| 20260502151652 | 19 | 62 | 8.0 | 12.9 | 0.00 | 15.01 | 20.98 | 88 | 1019.3 |
| 20260502151152 | 19 | 63 | 4.8 | 6.4 | 0.00 | 15.01 | 20.98 | 88 | 1019.5 |
| 20260502150652 | 19 | 34 | 3.2 | 4.8 | 0.00 | 15.01 | 20.98 | 87 | 1019.4 |
| 20260502150154 | 19 | 66 | 3.2 | 6.4 | 0.00 | 15.01 | 20.98 | 87 | 1019.4 |
| 20260502130457 | 19 | 113 | 9.7 | 14.5 | 0.00 | 15.01 | 20.98 | 87 | 1020.6 |
| 20260502123457 | 20 | 94 | 3.2 | 9.7 | 0.00 | 15.01 | 20.98 | 86 | 1020.7 |
| 20260502122957 | 20 | 67 | 1.6 | 3.2 | 0.00 | 15.01 | 20.98 | 85 | 1020.5 |
| 20260502122457 | 20 | 102 | 9.7 | 9.7 | 0.00 | 15.01 | 20.98 | 86 | 1020.6 |
| 20260502121957 | 20 | 81 | 9.7 | 12.9 | 0.00 | 15.01 | 20.98 | 85 | 1020.2 |
| 20260502121457 | 20 | 80 | 9.7 | 12.9 | 0.00 | 15.01 | 20.98 | 86 | 1020.5 |
| 20260502120957 | 20 | 69 | 11.3 | 14.5 | 0.00 | 15.01 | 20.98 | 85 | 1020.9 |
| 20260502120457 | 20 | 78 | 1.6 | 4.8 | 0.00 | 15.01 | 20.98 | 85 | 1021.0 |
| 20260502115456 | 20 | 76 | 3.2 | 6.4 | 0.00 | 15.01 | 20.98 | 86 | 1021.2 |
| 20260502114956 | 20 | 101 | 4.8 | 6.4 | 0.00 | 15.01 | 20.98 | 85 | 1021.3 |
| 20260502114456 | 20 | 64 | 4.8 | 6.4 | 0.00 | 15.01 | 20.98 | 86 | 1021.3 |
| 20260502113956 | 20 | 75 | 4.8 | 6.4 | 0.00 | 15.01 | 20.98 | 86 | 1021.2 |
| 20260502113456 | 20 | 58 | 3.2 | 4.8 | 0.00 | 15.01 | 20.98 | 86 | 1020.9 |
| 20260502113425 | 20 | 73 | 8.0 | 12.9 | 0.00 | 15.01 | 20.98 | 86 | 1020.9 |
| 20260502112925 | 20 | 109 | 3.2 | 6.4 | 0.00 | 15.01 | 20.98 | 86 | 1021.1 |
| 20260502112425 | 20 | 70 | 1.6 | 3.2 | 0.00 | 15.01 | 20.98 | 85 | 1021.0 |
| 20260502111925 | 20 | 70 | 8.0 | 12.9 | 0.00 | 15.01 | 20.98 | 83 | 1021.2 |
| 20260502111425 | 20 | 124 | 8.0 | 9.7 | 0.00 | 15.01 | 20.98 | 84 | 1021.2 |
| 20260502110425 | 20 | 99 | 4.8 | 6.4 | 0.00 | 15.01 | 20.98 | 84 | 1021.2 |
| 20260502105925 | 20 | 100 | 1.6 | 3.2 | 0.00 | 15.01 | 20.98 | 85 | 1021.4 |
| 20260502105425 | 20 | 71 | 1.6 | 3.2 | 0.00 | 15.01 | 20.98 | 85 | 1021.1 |
| 20260502104925 | 20 | 102 | 1.6 | 3.2 | 0.00 | 15.01 | 20.98 | 86 | 1021.4 |
| 20260502104425 | 20 | 68 | 1.6 | 3.2 | 0.00 | 15.01 | 20.98 | 87 | 1021.5 |
| 20260502103925 | 20 | 69 | 3.2 | 6.4 | 0.00 | 15.01 | 20.98 | 87 | 1021.6 |
| 20260502103425 | 20 | 111 | 4.8 | 8.0 | 0.00 | 15.01 | 20.98 | 87 | 1021.7 |
| 20260502102925 | 19 | 68 | 8.0 | 9.7 | 0.00 | 15.01 | 20.98 | 87 | 1021.7 |
| 20260502102425 | 20 | 68 | 4.8 | 8.0 | 0.00 | 15.01 | 20.98 | 86 | 1021.8 |
| 20260502101925 | 20 | 8 | 1.6 | 4.8 | 0.00 | 15.01 | 20.98 | 86 | 1021.8 |
| 20260502101425 | 19 | 86 | 1.6 | 3.2 | 0.00 | 15.01 | 20.98 | 87 | 1021.8 |
| 20260502100925 | 19 | 31 | 4.8 | 8.0 | 0.00 | 15.01 | 20.98 | 87 | 1021.9 |
| 20260502100425 | 19 | 55 | 3.2 | 4.8 | 0.00 | 15.01 | 20.98 | 88 | 1021.8 |
| 20260502091104 | 19 | 82 | 11.3 | 12.9 | 0.00 | 15.01 | 20.98 | 88 | 1022.0 |
| 20260502090604 | 18 | 89 | 4.8 | 6.4 | 0.00 | 15.01 | 20.98 | 88 | 1022.1 |
| 20260502090104 | 18 | 80 | 11.3 | 14.5 | 0.00 | 15.01 | 20.98 | 88 | 1022.1 |
| 20260502071155 | 18 | 48 | 3.2 | 4.8 | 0.00 | 15.01 | 20.98 | 86 | 1021.9 |
| 20260502070655 | 18 | 66 | 0.0 | 1.6 | 0.00 | 15.01 | 20.98 | 86 | 1021.8 |
| 20260502070155 | 18 | 94 | 0.0 | 1.6 | 0.00 | 15.01 | 20.98 | 86 | 1021.9 |
| 20260502065655 | 18 | 69 | 4.8 | 9.7 | 0.00 | 15.01 | 20.98 | 86 | 1021.9 |
| 20260502065155 | 18 | 82 | 9.7 | 12.9 | 0.00 | 15.01 | 20.98 | 85 | 1021.9 |
| 20260502064655 | 18 | 73 | 3.2 | 6.4 | 0.00 | 15.01 | 20.98 | 85 | 1021.8 |
| 20260502064155 | 18 | 81 | 1.6 | 3.2 | 0.00 | 15.01 | 20.98 | 85 | 1021.9 |
| 20260502063655 | 18 | 66 | 3.2 | 4.8 | 0.00 | 15.01 | 20.98 | 85 | 1021.8 |
| 20260502063155 | 18 | 71 | 3.2 | 4.8 | 0.00 | 15.01 | 20.98 | 85 | 1021.5 |
| 20260502062655 | 18 | 89 | 4.8 | 6.4 | 0.00 | 15.01 | 20.98 | 85 | 1021.9 |
| 20260502062155 | 18 | 80 | 4.8 | 4.8 | 0.00 | 15.01 | 20.98 | 85 | 1021.9 |
| 20260502061655 | 18 | 77 | 3.2 | 6.4 | 0.00 | 15.01 | 20.98 | 84 | 1021.7 |
| 20260502061155 | 18 | 71 | 1.6 | 3.2 | 0.00 | 15.01 | 20.98 | 84 | 1022.0 |
| 20260502060655 | 18 | 71 | 0.0 | 1.6 | 0.00 | 15.01 | 20.98 | 84 | 1021.6 |
| 20260502060155 | 18 | 70 | 0.0 | 1.6 | 0.00 | 15.01 | 20.98 | 84 | 1021.6 |
| 20260502055656 | 18 | 83 | 1.6 | 4.8 | 0.00 | 15.01 | 20.98 | 85 | 1021.6 |
| 20260502054655 | 18 | 67 | 3.2 | 3.2 | 0.00 | 15.01 | 20.98 | 86 | 1021.7 |
| 20260502054155 | 18 | 74 | 0.0 | 0.0 | 0.00 | 15.01 | 20.98 | 86 | 1021.6 |
| 20260502053655 | 18 | 83 | 4.8 | 6.4 | 0.00 | 15.01 | 20.98 | 86 | 1021.6 |
| 20260502053155 | 18 | 51 | 0.0 | 0.0 | 0.00 | 15.01 | 20.98 | 86 | 1021.6 |
| 20260502052655 | 18 | 61 | 0.0 | 1.6 | 0.00 | 15.01 | 20.98 | 86 | 1021.6 |
| 20260502052155 | 18 | 63 | 1.6 | 3.2 | 0.00 | 15.01 | 20.98 | 87 | 1021.6 |
| 20260502051655 | 18 | 82 | 0.0 | 0.0 | 0.00 | 15.01 | 20.98 | 87 | 1021.4 |
| 20260502051155 | 18 | 74 | 0.0 | 1.6 | 0.00 | 15.01 | 20.98 | 87 | 1021.7 |
| 20260502050655 | 18 | 70 | 1.6 | 4.8 | 0.00 | 15.01 | 20.98 | 87 | 1021.7 |
| 20260502050155 | 18 | 43 | 1.6 | 3.2 | 0.00 | 15.01 | 20.98 | 87 | 1021.6 |
| 20260502045655 | 18 | 30 | 0.0 | 0.0 | 0.00 | 15.01 | 20.98 | 87 | 1021.5 |
| 20260502045155 | 18 | 33 | 1.6 | 1.6 | 0.00 | 15.01 | 20.98 | 87 | 1021.8 |
| 20260502044655 | 18 | 30 | 1.6 | 3.2 | 0.00 | 15.01 | 20.98 | 87 | 1021.7 |
| 20260502044155 | 18 | 29 | 1.6 | 1.6 | 0.00 | 15.01 | 20.98 | 87 | 1021.7 |
| 20260502043655 | 18 | 32 | 0.0 | 1.6 | 0.00 | 15.01 | 20.98 | 87 | 1021.8 |
| 20260502043155 | 18 | 48 | 0.0 | 1.6 | 0.00 | 15.01 | 20.98 | 88 | 1021.6 |
| 20260502042655 | 18 | 64 | 1.6 | 3.2 | 0.00 | 15.01 | 20.98 | 88 | 1021.3 |
| 20260502042155 | 18 | 65 | 1.6 | 3.2 | 0.00 | 15.01 | 20.98 | 88 | 1021.4 |
| 20260502041655 | 18 | 42 | 1.6 | 3.2 | 0.00 | 15.01 | 20.98 | 88 | 1021.6 |
| 20260502041155 | 18 | 71 | 0.0 | 1.6 | 0.00 | 15.01 | 20.98 | 88 | 1021.8 |
| 20260502040655 | 18 | 67 | 0.0 | 1.6 | 0.00 | 15.01 | 20.98 | 88 | 1021.6 |
| 20260502040155 | 18 | 55 | 0.0 | 1.6 | 0.00 | 15.01 | 20.98 | 88 | 1021.6 |
| 20260502035155 | 18 | 67 | 3.2 | 4.8 | 0.00 | 15.01 | 20.98 | 88 | 1021.8 |
| 20260502034655 | 18 | 76 | 4.8 | 6.4 | 0.00 | 15.01 | 20.98 | 87 | 1021.5 |
| 20260502034155 | 18 | 88 | 3.2 | 4.8 | 0.00 | 15.01 | 20.98 | 87 | 1021.5 |
| 20260502033655 | 18 | 82 | 4.8 | 6.4 | 0.00 | 15.01 | 20.98 | 86 | 1021.7 |
| 20260502033155 | 18 | 70 | 3.2 | 4.8 | 0.00 | 15.01 | 20.98 | 86 | 1021.6 |
| 20260502032655 | 18 | 65 | 1.6 | 4.8 | 0.00 | 15.01 | 20.98 | 86 | 1021.9 |
| 20260502032155 | 18 | 86 | 0.0 | 1.6 | 0.00 | 15.01 | 20.98 | 86 | 1021.8 |
| 20260502031655 | 18 | 79 | 1.6 | 3.2 | 0.00 | 15.01 | 20.98 | 86 | 1021.8 |
| 20260502031155 | 18 | 77 | 1.6 | 3.2 | 0.00 | 15.01 | 20.98 | 85 | 1021.8 |
| 20260502030655 | 18 | 84 | 1.6 | 3.2 | 0.00 | 15.01 | 20.98 | 85 | 1021.7 |
| 20260502030155 | 18 | 67 | 3.2 | 4.8 | 0.00 | 15.01 | 20.98 | 86 | 1021.9 |
| 20260502025655 | 18 | 79 | 1.6 | 3.2 | 0.00 | 15.01 | 20.98 | 86 | 1021.8 |
| 20260502025155 | 18 | 79 | 3.2 | 3.2 | 0.00 | 15.01 | 20.98 | 86 | 1021.7 |
| 20260502024655 | 18 | 82 | 1.6 | 3.2 | 0.00 | 15.01 | 20.98 | 86 | 1021.8 |
| 20260502024155 | 18 | 84 | 4.8 | 6.4 | 0.00 | 15.01 | 20.98 | 86 | 1021.8 |
| 20260502023655 | 18 | 73 | 1.6 | 3.2 | 0.00 | 15.01 | 20.98 | 86 | 1021.8 |
| 20260502023155 | 18 | 84 | 1.6 | 3.2 | 0.00 | 15.01 | 20.98 | 86 | 1021.9 |
| 20260502022655 | 18 | 101 | 3.2 | 4.8 | 0.00 | 15.01 | 20.98 | 86 | 1021.9 |
| 20260502022155 | 18 | 77 | 3.2 | 4.8 | 0.00 | 15.01 | 20.98 | 86 | 1021.4 |
| 20260502021655 | 18 | 77 | 1.6 | 1.6 | 0.00 | 15.01 | 20.98 | 86 | 1021.9 |
| 20260502020655 | 18 | 68 | 3.2 | 3.2 | 0.00 | 15.01 | 20.98 | 86 | 1022.0 |
| 20260502020155 | 18 | 66 | 0.0 | 1.6 | 0.00 | 15.01 | 20.98 | 87 | 1022.0 |
| 20260502015655 | 18 | 91 | 1.6 | 3.2 | 0.00 | 15.01 | 20.98 | 86 | 1022.0 |
| 20260502015155 | 18 | 88 | 3.2 | 6.4 | 0.00 | 15.01 | 20.98 | 86 | 1021.8 |
| 20260502014655 | 18 | 89 | 1.6 | 3.2 | 0.00 | 15.01 | 20.98 | 86 | 1021.9 |
| 20260502014155 | 18 | 94 | 8.0 | 14.5 | 0.00 | 15.01 | 20.98 | 86 | 1021.9 |
| 20260502013655 | 18 | 54 | 8.0 | 9.7 | 0.00 | 15.01 | 20.98 | 86 | 1022.0 |
| 20260502013155 | 18 | 88 | 6.4 | 9.7 | 0.00 | 15.01 | 20.98 | 86 | 1021.9 |
| 20260502012655 | 18 | 96 | 1.6 | 4.8 | 0.00 | 15.01 | 20.98 | 86 | 1022.1 |
| 20260502012155 | 18 | 59 | 4.8 | 8.0 | 0.00 | 15.01 | 20.98 | 86 | 1022.2 |
| 20260502011655 | 18 | 84 | 1.6 | 3.2 | 0.00 | 15.01 | 20.98 | 86 | 1022.1 |
| 20260502011155 | 18 | 101 | 4.8 | 8.0 | 0.00 | 15.01 | 20.98 | 86 | 1022.2 |
| 20260502010154 | 18 | 95 | 1.6 | 4.8 | 0.00 | 15.01 | 20.98 | 86 | 1022.5 |
| 20260502005655 | 18 | 92 | 1.6 | 3.2 | 0.00 | 15.01 | 20.98 | 85 | 1022.4 |
| 20260502005155 | 18 | 93 | 1.6 | 4.8 | 0.00 | 15.01 | 20.98 | 85 | 1022.4 |
| 20260502004655 | 18 | 71 | 1.6 | 3.2 | 0.00 | 15.01 | 20.98 | 85 | 1022.6 |
| 20260502004154 | 18 | 66 | 3.2 | 6.4 | 0.00 | 15.01 | 20.98 | 85 | 1022.7 |
| 20260502003655 | 18 | 92 | 3.2 | 4.8 | 0.00 | 15.01 | 20.98 | 84 | 1022.6 |
| 20260502003155 | 18 | 96 | 6.4 | 8.0 | 0.00 | 15.01 | 20.98 | 84 | 1022.7 |
| 20260502002654 | 18 | 64 | 4.8 | 8.0 | 0.00 | 15.01 | 20.98 | 84 | 1022.8 |
| 20260502002154 | 18 | 70 | 9.7 | 14.5 | 0.00 | 15.01 | 20.98 | 84 | 1023.0 |
| 20260502001654 | 18 | 87 | 6.4 | 8.0 | 0.00 | 15.01 | 20.98 | 84 | 1022.9 |
| 20260502001155 | 18 | 70 | 0.0 | 1.6 | 0.00 | 15.01 | 20.98 | 84 | 1023.1 |
| 20260502000654 | 18 | 79 | 0.0 | 1.6 | 0.00 | 15.01 | 20.98 | 84 | 1023.1 |
| 20260502000154 | 18 | 71 | 4.8 | 8.0 | 0.00 | 15.01 | 20.98 | 84 | 1023.3 |
| 20260501235654 | 18 | 81 | 3.2 | 3.2 | 0.00 | 15.01 | 20.98 | 84 | 1023.2 |
| 20260501235154 | 18 | 69 | 6.4 | 9.7 | 0.00 | 15.01 | 20.98 | 84 | 1023.2 |
| 20260501234654 | 18 | 71 | 1.6 | 3.2 | 0.00 | 15.01 | 20.98 | 84 | 1023.3 |
| 20260501234154 | 18 | 75 | 4.8 | 6.4 | 0.00 | 15.01 | 20.98 | 84 | 1023.2 |
| 20260501233654 | 18 | 78 | 8.0 | 12.9 | 0.00 | 15.01 | 20.98 | 85 | 1023.5 |
| 20260501233154 | 18 | 77 | 8.0 | 14.5 | 0.00 | 15.01 | 20.98 | 85 | 1023.4 |
| 20260501232654 | 18 | 85 | 3.2 | 3.2 | 0.00 | 15.01 | 20.98 | 85 | 1023.3 |
| 20260501232155 | 18 | 90 | 4.8 | 6.4 | 0.00 | 15.01 | 20.98 | 85 | 1023.3 |
| 20260501231154 | 18 | 85 | 0.0 | 1.6 | 0.00 | 15.01 | 20.98 | 85 | 1023.2 |
| 20260501230654 | 18 | 82 | 0.0 | 1.6 | 0.00 | 15.01 | 20.98 | 85 | 1023.3 |
| 20260501230154 | 18 | 73 | 11.3 | 17.7 | 0.00 | 15.01 | 20.98 | 86 | 1023.4 |
| 20260501225654 | 18 | 65 | 9.7 | 16.1 | 0.00 | 15.01 | 20.98 | 86 | 1023.4 |
| 20260501225154 | 18 | 78 | 1.6 | 3.2 | 0.00 | 15.01 | 20.98 | 86 | 1023.3 |
| 20260501224654 | 18 | 95 | 4.8 | 6.4 | 0.00 | 15.01 | 20.98 | 86 | 1023.2 |